Regional Weather Roundup
Issued by NWS

Home | Current Version | Previous Version | Graphics & Text | Print | Product List | Glossary On
Versions: 1 2 3 4 5 6 7 8 9 10 11 12 13 14 15 16 17 18 19 20 21 22 23 24 25 26 27
000
ASUS45 KBOU 172106
RWRCO

WEATHER ROUNDUP FOR COLORADO
NATIONAL WEATHER SERVICE DENVER/BOULDER CO
300 PM MDT THU APR 17 2014

NOTE: "FAIR" INDICATES FEW OR NO CLOUDS BELOW 12000 FEET WITH NO
SIGNIFICANT WEATHER AND/OR OBSTRUCTIONS TO VISIBILITY.

COZ001>005-013-030-031-172200-
...NORTHWEST COLORADO...

CITY           SKY/WX    TMP DP  RH WIND       PRES   REMARKS
CRAIG          SUNNY     58  20  22 VRB7G21   30.05F
HAYDEN         SUNNY     55  21  26 NW10      30.09F
MEEKER         SUNNY     60  18  19 VRB7G20   30.05F
MOUNT WERNER   NOT AVBL
STEAMBOAT SPGS SUNNY     54  12  19 E10       30.07F
WALDEN         SUNNY     50  18  27 SW10G17   30.11S
$$

COZ006>008-011-172200-
...WEST CENTRAL VALLEYS...

CITY           SKY/WX    TMP DP  RH WIND       PRES   REMARKS
GRAND JUNCTION SUNNY     63  23  21 W7        30.05F
MONTROSE       SUNNY     65  22  19 MISG      30.08F
EAGLE          MOSUNNY   59  19  21 W13G23    30.08F
RIFLE          SUNNY     64  20  18 W20       30.04F
DELTA          SUNNY     68  22  17 SE5       30.06F
NUCLA            N/A     64  21  19 S5        30.12F
$$

COZ017>023-064>068-172200-
...SOUTHWEST COLORADO...

CITY           SKY/WX    TMP DP  RH WIND       PRES   REMARKS
DURANGO        SUNNY     62  16  16 SW8G23    30.11F
CORTEZ         SUNNY     65  19  17 W10       30.10F
PAGOSA SPRINGS SUNNY     58  13  16 CALM      30.14F
TELLURIDE      SUNNY     52  19  28 W14       30.19S
WOLF CREEK PAS MOSUNNY   36  19  51 SW15G23   30.29S
$$

COZ009-010-012-014-032>034-037-058>063-172200-
...CENTRAL COLORADO...

CITY           SKY/WX    TMP DP  RH WIND       PRES   REMARKS
ASPEN          MOSUNNY   55  11  17 MISG      30.10F
BUENA VISTA    MOSUNNY   53  23  30 SE6       30.11F
COPPER MTN     MOSUNNY   37  16  41 SW8G18    30.24R
BERTHOUD PASS  FAIR      30  19  64 W21G28    30.23F WCI  17
COTTONWOOD PAS SUNNY     46  10  23 W3G18     30.18S
GUNNISON       SUNNY     55  18  22 W14G22    30.15F
KREMMLING      SUNNY     55  14  19 W10G17    30.09F
LEADVILLE      MOSUNNY   42  14  32 W12       30.16S
MONARCH PASS   SUNNY     32  18  55 W41       30.33F WCI  16
SALIDA         SUNNY     62  10  13 W16       30.17F
SUNLIGHT       SUNNY     45  21  39 SW3       30.24S
WILKERSON PASS SUNNY     36  28  75 SW5       30.24S
$$

COZ069>075-172200-
...SAN LUIS VALLEY/SANGRE DE CRISTO MOUNTAINS...

CITY           SKY/WX    TMP DP  RH WIND       PRES   REMARKS
ALAMOSA        SUNNY     51  29  42 CALM      30.14F
LA VETA PASS   SUNNY     43  23  45 SW7       30.22S
SAGUACHE       NOT AVBL
$$

COZ035-036-038>040-172200-
...NORTHERN COLORADO FRONT RANGE...

CITY           SKY/WX    TMP DP  RH WIND       PRES   REMARKS
DENVER INTL AP MOSUNNY   63  21  20 SE10      30.02F
DMNS CITY PARK   N/A     62  25  24 SW9G15    30.01S
AURORA         MOSUNNY   61  27  27 E8        30.04F
FRONT RANGE AP MOSUNNY   63  21  20 SW5       30.04F
ERIE MUNI ARPT SUNNY     61  24  23 CALM      30.01F
BOULDER MUN AP SUNNY     61  30  31 N7        30.01F
CENTENNIAL     PTSUNNY   58  27  30 S12       30.04F
BROOMFIELD     MOSUNNY   63  25  23 E10       30.03F
FORT COLLINS   SUNNY     61  28  29 SE13      30.04F
LONGMONT       SUNNY     66  30  26 E3        30.03F
$$

COZ041-046-047-076>085-087-088-172200-
...PIKES PEAK/PALMER DIVIDE AND SOUTHERN FOOTHILLS...

CITY           SKY/WX    TMP DP  RH WIND       PRES   REMARKS
COLO. SPRINGS  PTSUNNY   52  34  50 S13G20    30.13F
A. F. ACADEMY  MOSUNNY   49  36  61 S16       30.11F
ELLICOTT       NOT AVBL
FALCON         MOSUNNY   48  33  54 S10G20    30.15S
FORT CARSON    MOSUNNY   54  35  47 S12G23    30.10F
LIMON          SUNNY     55  33  43 S20G30    30.11F
MONUMENT HILL  MOSUNNY   50  34  53 S17G23    30.10S
TRINIDAD       MOSUNNY   55  37  50 SW14      30.13F
$$

COZ042>045-048>051-090-091-172200-
...NORTHEAST COLORADO...

CITY           SKY/WX    TMP DP  RH WIND       PRES   REMARKS
GREELEY ARPT   SUNNY     63  25  23 E5        30.03F
AKRON          PTSUNNY   59  31  34 S16G29    30.05F
BURLINGTON     CLOUDY    51  37  58 S18       30.15F
WRAY           MOSUNNY   58  37  45 S20G28    30.12F
STERLING       MOSUNNY   68  32  26 W13G22    30.01F
HOLYOKE        MOSUNNY   59  37  44 S21G28    30.10F
FORT MORGAN    MOSUNNY   64  20  18 SW3       30.04F
$$

COZ086-089-092>099-172200-
...SOUTHEAST COLORADO...

CITY           SKY/WX    TMP DP  RH WIND       PRES   REMARKS
PUEBLO         SUNNY     58  36  43 S6        30.10F
LA JUNTA       PTSUNNY   58  35  42 S13       30.13F
LAMAR          PTSUNNY   55  39  54 S17       30.16F
SPRINGFIELD      N/A     47  38  71 S9        30.20F
$$



USA.gov is the U.S. government's official web portal to all federal, state and local government web resources and services.